RH
44 31 28 24 21 21 21 21 22 21 21 21 21 18 16 16 16 17 18 18 18 18 18 19 19 20 20 20 20 20 20 20 19 20 22 21 20 20 22 24 28 24 22
43 33 28 23 19 18 18 19 20 20 21 21 20 18 17 17 17 17 18 19 18 18 18 19 19 19 19 20 20 20 20 20 21 25 29 29 26 23 22 22 23 23 23
41 33 28 23 20 18 16 16 17 19 20 20 18 18 18 18 18 18 18 18 18 18 18 18 19 19 20 20 20 20 21 22 24 29 34 40 28 26 26 26 25 24 23
39 33 28 23 21 20 19 17 17 18 19 18 17 17 17 17 18 18 18 18 18 19 18 18 18 19 20 21 21 22 22 24 26 34 41 44 35 28 29 29 30 30 28
37 33 29 24 23 22 22 20 19 17 17 17 17 17 17 17 17 18 17 18 18 19 19 19 19 19 20 20 21 23 23 26 29 37 43 43 42 28 28 30 31 33 32
37 35 31 25 23 24 24 24 22 20 18 17 16 17 17 17 17 17 18 18 18 19 20 20 20 20 20 21 22 23 24 25 35 44 45 36 38 27 27 30 32 32 33
39 36 29 27 24 24 25 26 25 22 19 17 17 17 17 17 17 17 18 18 19 20 21 23 24 22 21 21 22 23 25 26 34 48 46 49 38 31 30 32 34 35 35
36 36 30 27 25 25 26 27 27 25 22 19 17 17 17 17 17 18 18 19 19 20 23 25 26 24 23 22 23 24 26 28 30 42 43 47 40 32 32 36 36 37 36
34 35 30 27 26 26 27 27 27 26 23 21 18 17 17 17 17 18 18 19 19 20 22 24 25 26 25 24 25 25 27 28 29 38 37 44 39 34 34 37 40 40 42
29 32 27 26 26 25 25 25 25 25 24 22 20 18 18 18 18 18 19 20 19 20 21 23 25 26 27 26 26 26 27 30 30 36 37 39 39 34 37 39 44 42 41
26 27 29 25 23 24 23 23 23 24 24 22 21 19 18 19 19 19 20 21 21 21 22 23 24 27 28 28 28 27 28 30 37 40 42 38 35 34 36 39 43 45 43
24 23 25 25 24 23 24 23 21 22 22 22 21 20 19 20 23 23 21 21 23 22 23 25 26 28 30 30 30 30 29 33 41 42 42 38 34 34 34 39 41 44 47
27 27 24 22 22 22 23 26 24 23 21 21 20 20 20 24 26 24 26 23 23 24 24 26 27 29 31 33 37 36 35 40 42 47 44 38 33 33 34 37 41 43 47
27 28 27 25 22 22 26 27 28 27 25 24 22 20 21 22 26 26 27 28 25 28 27 30 32 33 34 35 37 38 37 38 42 46 45 41 35 33 34 36 38 42 47
28 27 28 29 26 24 22 28 27 28 29 29 28 25 25 26 26 27 28 29 33 32 34 34 37 40 38 38 37 38 38 38 40 44 46 42 38 35 36 36 38 39 43
32 29 26 26 26 27 27 24 24 25 29 29 30 30 24 26 27 28 30 31 33 36 37 38 40 41 42 42 42 39 40 43 45 46 46 42 42 38 37 38 39 42 46
35 33 28 26 26 26 27 29 29 29 28 31 28 31 27 25 28 30 32 32 34 38 36 40 41 43 43 46 43 44 44 45 48 49 49 51 46 46 42 41 44 47 52
39 37 32 29 27 27 26 27 30 31 33 34 35 33 30 28 27 30 32 35 37 40 41 42 43 44 46 46 46 47 50 49 51 50 52 54 59 57 52 51 50 51 55
39 41 36 32 30 30 29 32 32 34 35 37 39 39 36 33 32 30 34 35 38 40 43 44 46 46 47 48 49 53 55 54 56 55 58 62 66 66 64 63 59 59 64
37 43 39 33 31 33 37 35 36 37 37 39 41 38 37 35 34 35 35 36 39 41 42 44 46 48 49 50 53 54 54 55 56 58 65 77 83 76 74 72 73 74 72
33 36 37 34 34 35 37 39 39 39 40 40 41 42 39 41 42 41 42 45 46 46 47 50 52 55 56 59 61 59 60 64 67 71 78 83 79 77 76 78 79 81 80
31 34 35 36 39 38 39 40 42 44 44 44 45 46 44 43 46 49 49 51 53 54 55 56 58 60 60 67 69 76 74 74 72 76 77 76 78 78 79 83 85 86 82
28 31 34 38 41 45 44 46 46 47 47 48 45 47 45 45 50 51 53 53 57 59 60 62 66 67 67 68 73 79 82 78 80 72 73 73 76 80 80 81 87 81 86
26 26 28 35 40 45 49 52 51 51 50 48 47 49 48 48 50 52 52 55 57 60 60 64 67 69 75 74 83 78 74 74 74 72 72 73 80 81 81 81 79 81 81
27 28 29 32 39 47 50 50 46 46 49 51 50 52 55 57 55 53 54 56 60 63 62 65 68 70 73 77 77 76 70 70 76 78 79 76 82 81 82 89 86 82 78
30 29 32 35 41 43 45 45 46 47 51 52 55 57 58 60 62 62 59 59 61 65 67 69 72 74 75 72 72 68 67 71 71 78 80 81 84 83 87 98 84 87 80